TimeMST,TemperatureF,Dew PointF,Humidity,Sea Level PressureIn,VisibilityMPH,Wind Direction,Wind SpeedMPH,Gust SpeedMPH,PrecipitationIn,Events,Conditions,WindDirDegrees,DateUTC
12:15 AM,30.2,6.8,37,30.39,10.0,NE,4.6,-,N/A,,Clear,50,2013-02-16 07:15:00
12:35 AM,27.3,3.9,37,30.39,10.0,Calm,Calm,-,N/A,,Clear,0,2013-02-16 07:35:00
12:55 AM,27.5,4.3,37,30.40,10.0,Calm,Calm,-,N/A,,Clear,0,2013-02-16 07:55:00
1:15 AM,28.8,5.5,37,30.40,10.0,NNW,5.8,-,N/A,,Clear,330,2013-02-16 08:15:00
1:35 AM,27.5,5.0,38,30.40,10.0,NNW,9.2,-,N/A,,Clear,330,2013-02-16 08:35:00
1:55 AM,30.7,6.6,36,30.40,10.0,NNW,10.4,-,N/A,,Clear,340,2013-02-16 08:55:00
2:15 AM,30.9,7.3,37,30.40,10.0,North,10.4,-,N/A,,Clear,350,2013-02-16 09:15:00
2:35 AM,31.3,7.7,37,30.40,10.0,North,10.4,-,N/A,,Clear,350,2013-02-16 09:35:00
2:55 AM,28.9,7.9,41,30.40,10.0,North,10.4,-,N/A,,Clear,360,2013-02-16 09:55:00
3:15 AM,27.7,7.7,43,30.40,10.0,North,5.8,-,N/A,,Clear,350,2013-02-16 10:15:00
3:35 AM,26.2,7.2,44,30.40,10.0,NNE,3.5,-,N/A,,Clear,20,2013-02-16 10:35:00
3:55 AM,23.5,5.4,46,30.41,10.0,WNW,3.5,-,N/A,,Clear,290,2013-02-16 10:55:00
4:15 AM,22.8,5.0,47,30.41,10.0,South,3.5,-,N/A,,Clear,190,2013-02-16 11:15:00
4:35 AM,20.5,3.7,48,30.41,10.0,Calm,Calm,-,N/A,,Clear,0,2013-02-16 11:35:00
4:55 AM,21.2,3.7,47,30.41,10.0,West,8.1,-,N/A,,Clear,270,2013-02-16 11:55:00
5:15 AM,20.7,2.8,46,30.41,10.0,WNW,8.1,-,N/A,,Clear,300,2013-02-16 12:15:00
5:35 AM,21.7,3.2,45,30.41,10.0,WNW,6.9,-,N/A,,Clear,300,2013-02-16 12:35:00
5:55 AM,21.0,3.4,47,30.41,10.0,WNW,8.1,-,N/A,,Clear,300,2013-02-16 12:55:00
6:15 AM,20.5,3.0,47,30.41,10.0,NW,5.8,-,N/A,,Clear,320,2013-02-16 13:15:00
6:35 AM,20.5,3.7,48,30.41,10.0,NW,8.1,-,N/A,,Clear,310,2013-02-16 13:35:00
6:55 AM,21.9,4.1,46,30.41,10.0,NW,10.4,-,N/A,,Clear,320,2013-02-16 13:55:00
7:15 AM,23.5,5.0,45,30.42,10.0,NW,9.2,-,N/A,,Clear,320,2013-02-16 14:15:00
7:35 AM,24.8,5.2,43,30.43,10.0,NNW,9.2,-,N/A,,Clear,330,2013-02-16 14:35:00
7:55 AM,28.0,5.5,38,30.44,10.0,NW,6.9,-,N/A,,Clear,310,2013-02-16 14:55:00
8:15 AM,31.6,7.5,36,30.44,10.0,NW,4.6,-,N/A,,Clear,310,2013-02-16 15:15:00
8:35 AM,33.8,8.6,35,30.44,10.0,NW,4.6,-,N/A,,Clear,310,2013-02-16 15:35:00
11:15 AM,45.7,7.7,21,30.40,10.0,Calm,Calm,-,N/A,,Clear,0,2013-02-16 18:15:00
11:35 AM,47.5,6.1,18,30.39,10.0,NNE,4.6,-,N/A,,Clear,20,2013-02-16 18:35:00
11:55 AM,48.2,5.7,18,30.37,10.0,North,4.6,-,N/A,,Clear,350,2013-02-16 18:55:00
12:15 PM,49.1,5.9,17,30.35,10.0,North,3.5,-,N/A,,Clear,350,2013-02-16 19:15:00
12:35 PM,50.2,5.9,17,30.33,10.0,SSE,3.5,-,N/A,,Clear,160,2013-02-16 19:35:00
12:55 PM,50.9,5.9,16,30.32,10.0,Calm,Calm,-,N/A,,Clear,0,2013-02-16 19:55:00
1:15 PM,52.7,6.6,16,30.31,10.0,Calm,Calm,-,N/A,,Clear,0,2013-02-16 20:15:00
1:35 PM,53.8,6.4,15,30.29,10.0,SW,3.5,-,N/A,,Clear,220,2013-02-16 20:35:00
1:55 PM,54.1,6.4,15,30.28,10.0,Calm,Calm,-,N/A,,Clear,0,2013-02-16 20:55:00
2:15 PM,55.0,6.6,14,30.27,10.0,WNW,4.6,-,N/A,,Clear,300,2013-02-16 21:15:00
2:35 PM,55.6,6.4,14,30.25,10.0,Calm,Calm,-,N/A,,Clear,0,2013-02-16 21:35:00
2:55 PM,55.4,6.4,14,30.25,10.0,Calm,Calm,-,N/A,,Clear,0,2013-02-16 21:55:00
3:15 PM,57.6,7.2,13,30.23,10.0,NE,4.6,-,N/A,,Clear,50,2013-02-16 22:15:00
3:35 PM,57.2,6.8,13,30.23,10.0,ENE,3.5,-,N/A,,Clear,70,2013-02-16 22:35:00
3:55 PM,57.4,6.6,13,30.22,10.0,Calm,Calm,-,N/A,,Clear,0,2013-02-16 22:55:00
4:15 PM,57.7,6.6,13,30.21,10.0,Calm,Calm,-,N/A,,Clear,0,2013-02-16 23:15:00
4:35 PM,57.7,6.4,13,30.20,10.0,East,3.5,-,N/A,,Clear,100,2013-02-16 23:35:00
4:55 PM,57.4,6.4,13,30.19,10.0,East,3.5,-,N/A,,Clear,90,2013-02-16 23:55:00
5:15 PM,56.5,5.9,13,30.19,10.0,ESE,3.5,-,N/A,,Clear,110,2013-02-17 00:15:00
5:35 PM,54.7,5.4,14,30.20,10.0,SE,4.6,-,N/A,,Clear,140,2013-02-17 00:35:00
5:55 PM,52.7,5.0,15,30.19,10.0,ESE,3.5,-,N/A,,Clear,120,2013-02-17 00:55:00
6:15 PM,46.6,2.1,16,30.19,10.0,South,4.6,-,N/A,,Clear,180,2013-02-17 01:15:00
6:35 PM,45.1,1.4,16,30.19,7.0,South,4.6,-,N/A,,Clear,170,2013-02-17 01:35:00
6:55 PM,44.2,1.0,17,30.20,10.0,South,5.8,-,N/A,,Clear,170,2013-02-17 01:55:00
7:15 PM,42.8,1.4,18,30.20,10.0,South,4.6,-,N/A,,Clear,180,2013-02-17 02:15:00
7:35 PM,42.8,1.2,18,30.19,10.0,SSW,4.6,-,N/A,,Clear,200,2013-02-17 02:35:00
7:55 PM,41.9,0.7,18,30.19,10.0,South,4.6,-,N/A,,Clear,190,2013-02-17 02:55:00
8:15 PM,41.2,0.5,18,30.19,10.0,South,3.5,-,N/A,,Clear,190,2013-02-17 03:15:00
8:35 PM,40.1,0.3,19,30.19,10.0,SSW,4.6,-,N/A,,Clear,210,2013-02-17 03:35:00
8:55 PM,38.8,0.1,20,30.19,10.0,WNW,4.6,-,N/A,,Clear,300,2013-02-17 03:55:00
9:15 PM,35.2,-1.7,21,30.18,10.0,Calm,Calm,-,N/A,,Clear,0,2013-02-17 04:15:00
9:35 PM,34.2,-1.1,22,30.18,10.0,NE,3.5,-,N/A,,Clear,50,2013-02-17 04:35:00
9:55 PM,31.1,-3.8,22,30.18,10.0,NE,3.5,-,N/A,,Clear,50,2013-02-17 04:55:00
10:15 PM,31.8,-2.4,23,30.17,7.0,ENE,5.8,-,N/A,,Clear,70,2013-02-17 05:15:00
10:35 PM,32.7,-1.8,23,30.17,10.0,East,3.5,-,N/A,,Clear,80,2013-02-17 05:35:00
10:55 PM,31.3,-1.7,24,30.17,10.0,Calm,Calm,-,N/A,,Clear,0,2013-02-17 05:55:00
11:15 PM,34.0,1.0,25,30.16,10.0,NNE,3.5,-,N/A,,Clear,30,2013-02-17 06:15:00
11:35 PM,32.5,-0.6,24,30.16,10.0,NE,3.5,-,N/A,,Clear,40,2013-02-17 06:35:00
11:55 PM,28.8,-2.2,26,30.16,10.0,NW,6.9,-,N/A,,Clear,310,2013-02-17 06:55:00